����������;��������(kWh)
2016-01-04 00:00;56,25
2016-01-04 00:15;58,35
2016-01-04 00:30;57,9
2016-01-04 00:45;57,5
2016-01-04 01:00;56,8
2016-01-04 01:15;58,7
2016-01-04 01:30;58,3
2016-01-04 01:45;57,25
2016-01-04 02:00;58,7
2016-01-04 02:15;56,8
2016-01-04 02:30;57,5
2016-01-04 02:45;57,15
2016-01-04 03:00;58
2016-01-04 03:15;57,7
2016-01-04 03:30;56,55
2016-01-04 03:45;58,55
2016-01-04 04:00;60,6
2016-01-04 04:15;59,1
2016-01-04 04:30;61,1
2016-01-04 04:45;63,25
2016-01-04 05:00;62,55
2016-01-04 05:15;59,45
2016-01-04 05:30;61,2
2016-01-04 05:45;57,1
2016-01-04 06:00;58,75
2016-01-04 06:15;58,9
2016-01-04 06:30;58,6
2016-01-04 06:45;56,45
2016-01-04 07:00;56,95
2016-01-04 07:15;54,5
2016-01-04 07:30;54,65
2016-01-04 07:45;56,45
2016-01-04 08:00;56,35
2016-01-04 08:15;56,1
2016-01-04 08:30;57,85
2016-01-04 08:45;61,9
2016-01-04 09:00;57,8
2016-01-04 09:15;59,6
2016-01-04 09:30;63,4
2016-01-04 09:45;63
2016-01-04 10:00;66
2016-01-04 10:15;71,6
2016-01-04 10:30;73,95
2016-01-04 10:45;80,2
2016-01-04 11:00;83,35
2016-01-04 11:15;70,65
2016-01-04 11:30;69,45
2016-01-04 11:45;73,95
2016-01-04 12:00;78,7
2016-01-04 12:15;81,55
2016-01-04 12:30;81,75
2016-01-04 12:45;81,5
2016-01-04 13:00;82,95
2016-01-04 13:15;82,5
2016-01-04 13:30;80,9
2016-01-04 13:45;80,5
2016-01-04 14:00;81,4
2016-01-04 14:15;81,7
2016-01-04 14:30;80,6
2016-01-04 14:45;83,4
2016-01-04 15:00;80,4
2016-01-04 15:15;78,2
2016-01-04 15:30;79,55
2016-01-04 15:45;80,95
2016-01-04 16:00;78,35
2016-01-04 16:15;82,05
2016-01-04 16:30;90,95
2016-01-04 16:45;89,9
2016-01-04 17:00;91,1
2016-01-04 17:15;87,35
2016-01-04 17:30;85,95
2016-01-04 17:45;88,45
2016-01-04 18:00;88,7
2016-01-04 18:15;88,4
2016-01-04 18:30;91,8
2016-01-04 18:45;92,15
2016-01-04 19:00;91,5
2016-01-04 19:15;87,3
2016-01-04 19:30;87,45
2016-01-04 19:45;79,75
2016-01-04 20:00;74,75
2016-01-04 20:15;75,1
2016-01-04 20:30;72,5
2016-01-04 20:45;71,7
2016-01-04 21:00;72
2016-01-04 21:15;70
2016-01-04 21:30;69,05
2016-01-04 21:45;68
2016-01-04 22:00;65,4
2016-01-04 22:15;67
2016-01-04 22:30;65,75
2016-01-04 22:45;64,55
2016-01-04 23:00;63,35
2016-01-04 23:15;62,15
2016-01-04 23:30;64,5
2016-01-04 23:45;62,05
2016-01-05 00:00;63,2
2016-01-05 00:15;60,8
2016-01-05 00:30;61,75
2016-01-05 00:45;59,85
2016-01-05 01:00;58,35
2016-01-05 01:15;58,75
2016-01-05 01:30;60,35
2016-01-05 01:45;58,8
2016-01-05 02:00;57,95
2016-01-05 02:15;60,05
2016-01-05 02:30;58,55
2016-01-05 02:45;58,5
2016-01-05 03:00;57,55
2016-01-05 03:15;60,15
2016-01-05 03:30;58,45
2016-01-05 03:45;57,95
2016-01-05 04:00;60,5
2016-01-05 04:15;60
2016-01-05 04:30;60,5
2016-01-05 04:45;61,7
2016-01-05 05:00;61,9
2016-01-05 05:15;59,9
2016-01-05 05:30;63,05
2016-01-05 05:45;56,5
2016-01-05 06:00;57,45
2016-01-05 06:15;59,3
2016-01-05 06:30;59,9
2016-01-05 06:45;58
2016-01-05 07:00;55,7
2016-01-05 07:15;57
2016-01-05 07:30;59,4
2016-01-05 07:45;64,45
2016-01-05 08:00;64,25
2016-01-05 08:15;66,2
2016-01-05 08:30;64,1
2016-01-05 08:45;64,1
2016-01-05 09:00;64,4
2016-01-05 09:15;70
2016-01-05 09:30;64
2016-01-05 09:45;67,5
2016-01-05 10:00;67,4
2016-01-05 10:15;71
2016-01-05 10:30;71,8
2016-01-05 10:45;79,3
2016-01-05 11:00;78,9
2016-01-05 11:15;70,95
2016-01-05 11:30;69,55
2016-01-05 11:45;72,05
2016-01-05 12:00;73
2016-01-05 12:15;77,75
2016-01-05 12:30;81,15
2016-01-05 12:45;81,3
2016-01-05 13:00;82,45
2016-01-05 13:15;79,55
2016-01-05 13:30;81,65
2016-01-05 13:45;81,6
2016-01-05 14:00;81,65
2016-01-05 14:15;75,75
2016-01-05 14:30;77
2016-01-05 14:45;74,65
2016-01-05 15:00;75,35
2016-01-05 15:15;75,4
2016-01-05 15:30;75,05
2016-01-05 15:45;77,1
2016-01-05 16:00;76,3
2016-01-05 16:15;75,3
2016-01-05 16:30;74,75
2016-01-05 16:45;75,95
2016-01-05 17:00;77,95
2016-01-05 17:15;78,7
2016-01-05 17:30;77,4
2016-01-05 17:45;80,65
2016-01-05 18:00;83,25
2016-01-05 18:15;82,4
2016-01-05 18:30;82,25
2016-01-05 18:45;82,7
2016-01-05 19:00;84,6
2016-01-05 19:15;86,1
2016-01-05 19:30;85,3
2016-01-05 19:45;85,35
2016-01-05 20:00;85
2016-01-05 20:15;85,2
2016-01-05 20:30;78,95
2016-01-05 20:45;76,65
2016-01-05 21:00;75,85
2016-01-05 21:15;73,55
2016-01-05 21:30;74
2016-01-05 21:45;71,95
2016-01-05 22:00;70,85
2016-01-05 22:15;69,5
2016-01-05 22:30;69,95
2016-01-05 22:45;67,8
2016-01-05 23:00;65,5
2016-01-05 23:15;63,45
2016-01-05 23:30;64,65
2016-01-05 23:45;63,35
2016-01-06 00:00;63,1
2016-01-06 00:15;63,7
2016-01-06 00:30;63,65
2016-01-06 00:45;62,6
2016-01-06 01:00;62,65
2016-01-06 01:15;61,4
2016-01-06 01:30;62,25
2016-01-06 01:45;62,05
2016-01-06 02:00;61,5
2016-01-06 02:15;62,4
2016-01-06 02:30;61,65
2016-01-06 02:45;61,9
2016-01-06 03:00;61,4
2016-01-06 03:15;61,8
2016-01-06 03:30;60,5
2016-01-06 03:45;61,95
2016-01-06 04:00;62,6
2016-01-06 04:15;61,4
2016-01-06 04:30;62,35
2016-01-06 04:45;65,35
2016-01-06 05:00;64,85
2016-01-06 05:15;61,35
2016-01-06 05:30;65,3
2016-01-06 05:45;59,05
2016-01-06 06:00;59,75
2016-01-06 06:15;62,6
2016-01-06 06:30;61,6
2016-01-06 06:45;57,85
2016-01-06 07:00;59,1
2016-01-06 07:15;64,5
2016-01-06 07:30;62,3
2016-01-06 07:45;62,55
2016-01-06 08:00;63,5
2016-01-06 08:15;64,7
2016-01-06 08:30;64,7
2016-01-06 08:45;57,95
2016-01-06 09:00;55,75
2016-01-06 09:15;55,8
2016-01-06 09:30;55,9
2016-01-06 09:45;56,1
2016-01-06 10:00;56,5
2016-01-06 10:15;59,8
2016-01-06 10:30;61,05
2016-01-06 10:45;67,45
2016-01-06 11:00;68,95
2016-01-06 11:15;57,95
2016-01-06 11:30;57,4
2016-01-06 11:45;58,5
2016-01-06 12:00;58,6
2016-01-06 12:15;58,55
2016-01-06 12:30;58,05
2016-01-06 12:45;57,6
2016-01-06 13:00;57,1
2016-01-06 13:15;60,1
2016-01-06 13:30;58,85
2016-01-06 13:45;59,25
2016-01-06 14:00;60
2016-01-06 14:15;60,85
2016-01-06 14:30;58,8
2016-01-06 14:45;59,3
2016-01-06 15:00;59,95
2016-01-06 15:15;59,95
2016-01-06 15:30;58,1
2016-01-06 15:45;59,4
2016-01-06 16:00;59,15
2016-01-06 16:15;59,5
2016-01-06 16:30;60,15
2016-01-06 16:45;61,2
2016-01-06 17:00;64,1
2016-01-06 17:15;64,45
2016-01-06 17:30;65,1
2016-01-06 17:45;66,7
2016-01-06 18:00;68,95
2016-01-06 18:15;69
2016-01-06 18:30;68,85
2016-01-06 18:45;68,5
2016-01-06 19:00;69,3
2016-01-06 19:15;71,2
2016-01-06 19:30;70,35
2016-01-06 19:45;70,35
2016-01-06 20:00;68,5
2016-01-06 20:15;74,5
2016-01-06 20:30;73,75
2016-01-06 20:45;74,3
2016-01-06 21:00;73,7
2016-01-06 21:15;73,3
2016-01-06 21:30;72,85
2016-01-06 21:45;73
2016-01-06 22:00;68,2
2016-01-06 22:15;65,55
2016-01-06 22:30;65,95
2016-01-06 22:45;65,15
2016-01-06 23:00;63,75
2016-01-06 23:15;65,15
2016-01-06 23:30;63,85
2016-01-06 23:45;63,9
2016-01-07 00:00;62,75
2016-01-07 00:15;64,05
2016-01-07 00:30;61,65
2016-01-07 00:45;59,95
2016-01-07 01:00;61,85
2016-01-07 01:15;63,2
2016-01-07 01:30;62,05
2016-01-07 01:45;62,6
2016-01-07 02:00;63
2016-01-07 02:15;63,5
2016-01-07 02:30;62,8
2016-01-07 02:45;62,45
2016-01-07 03:00;62,1
2016-01-07 03:15;62,1
2016-01-07 03:30;62,55
2016-01-07 03:45;61,6
2016-01-07 04:00;64,2
2016-01-07 04:15;65,1
2016-01-07 04:30;64,1
2016-01-07 04:45;66,1
2016-01-07 05:00;65,85
2016-01-07 05:15;63,4
2016-01-07 05:30;65,95
2016-01-07 05:45;60,95
2016-01-07 06:00;63,4
2016-01-07 06:15;65,6
2016-01-07 06:30;64,55
2016-01-07 06:45;63,55
2016-01-07 07:00;66,05
2016-01-07 07:15;68,1
2016-01-07 07:30;68,25
2016-01-07 07:45;69,45
2016-01-07 08:00;80,8
2016-01-07 08:15;92,9
2016-01-07 08:30;95,5
2016-01-07 08:45;160,7
2016-01-07 09:00;140,1
2016-01-07 09:15;142,15
2016-01-07 09:30;146,35
2016-01-07 09:45;154,15
2016-01-07 10:00;156,85
2016-01-07 10:15;171,5
2016-01-07 10:30;170,35
2016-01-07 10:45;178,4
2016-01-07 11:00;191,55
2016-01-07 11:15;204,7
2016-01-07 11:30;227,1
2016-01-07 11:45;229,05
2016-01-07 12:00;217,6
2016-01-07 12:15;221,2
2016-01-07 12:30;214,25
2016-01-07 12:45;213,95
2016-01-07 13:00;206,85
2016-01-07 13:15;206,1
2016-01-07 13:30;211,25
2016-01-07 13:45;203,45
2016-01-07 14:00;205,2
2016-01-07 14:15;210,25
2016-01-07 14:30;203,55
2016-01-07 14:45;203,9
2016-01-07 15:00;201,5
2016-01-07 15:15;189,35
2016-01-07 15:30;179,7
2016-01-07 15:45;174,7
2016-01-07 16:00;168,2
2016-01-07 16:15;158,9
2016-01-07 16:30;162,3
2016-01-07 16:45;170,65
2016-01-07 17:00;169,15
2016-01-07 17:15;168,3
2016-01-07 17:30;162,25
2016-01-07 17:45;169,3
2016-01-07 18:00;160,15
2016-01-07 18:15;156,15
2016-01-07 18:30;153,7
2016-01-07 18:45;153,25
2016-01-07 19:00;148,35
2016-01-07 19:15;127,55
2016-01-07 19:30;121,95
2016-01-07 19:45;128
2016-01-07 20:00;116,8
2016-01-07 20:15;111,1
2016-01-07 20:30;103,35
2016-01-07 20:45;100,75
2016-01-07 21:00;102,65
2016-01-07 21:15;99,85
2016-01-07 21:30;99,5
2016-01-07 21:45;91,25
2016-01-07 22:00;90
2016-01-07 22:15;88,75
2016-01-07 22:30;91
2016-01-07 22:45;97,15
2016-01-07 23:00;88,15
2016-01-07 23:15;81,65
2016-01-07 23:30;83,35
2016-01-07 23:45;87,65
2016-01-08 00:00;89,35
2016-01-08 00:15;92,7
2016-01-08 00:30;89,9
2016-01-08 00:45;89,65
2016-01-08 01:00;89,45
2016-01-08 01:15;82,95
2016-01-08 01:30;82,3
2016-01-08 01:45;82,55
2016-01-08 02:00;81,8
2016-01-08 02:15;82,2
2016-01-08 02:30;80,55
2016-01-08 02:45;79,35
2016-01-08 03:00;73,35
2016-01-08 03:15;72,7
2016-01-08 03:30;72,65
2016-01-08 03:45;72,55
2016-01-08 04:00;76,15
2016-01-08 04:15;74,45
2016-01-08 04:30;75,15
2016-01-08 04:45;76,4
2016-01-08 05:00;73,8
2016-01-08 05:15;71,6
2016-01-08 05:30;72,55
2016-01-08 05:45;66,45
2016-01-08 06:00;69
2016-01-08 06:15;71,5
2016-01-08 06:30;73,1
2016-01-08 06:45;73,65
2016-01-08 07:00;75,5
2016-01-08 07:15;100,05
2016-01-08 07:30;110,65
2016-01-08 07:45;112,55
2016-01-08 08:00;160
2016-01-08 08:15;119,4
2016-01-08 08:30;134,05
2016-01-08 08:45;129,25
2016-01-08 09:00;134,5
2016-01-08 09:15;152,5
2016-01-08 09:30;168,7
2016-01-08 09:45;173
2016-01-08 10:00;170,8
2016-01-08 10:15;181,6
2016-01-08 10:30;193,2
2016-01-08 10:45;211,3
2016-01-08 11:00;218,85
2016-01-08 11:15;200,45
2016-01-08 11:30;210,95
2016-01-08 11:45;212,5
2016-01-08 12:00;212,4
2016-01-08 12:15;208,95
2016-01-08 12:30;210
2016-01-08 12:45;213,6
2016-01-08 13:00;215,6
2016-01-08 13:15;209,4
2016-01-08 13:30;206,5
2016-01-08 13:45;208,9
2016-01-08 14:00;209
2016-01-08 14:15;197,8
2016-01-08 14:30;203,6
2016-01-08 14:45;192,75
2016-01-08 15:00;189,85
2016-01-08 15:15;175,4
2016-01-08 15:30;170
2016-01-08 15:45;168,2
2016-01-08 16:00;158,8
2016-01-08 16:15;153,55
2016-01-08 16:30;155,7
2016-01-08 16:45;156,55
2016-01-08 17:00;149,65
2016-01-08 17:15;150,7
2016-01-08 17:30;159,2
2016-01-08 17:45;155,7
2016-01-08 18:00;147,75
2016-01-08 18:15;147,1
2016-01-08 18:30;143,55
2016-01-08 18:45;148,05
2016-01-08 19:00;146,65
2016-01-08 19:15;142,5
2016-01-08 19:30;136,45
2016-01-08 19:45;133
2016-01-08 20:00;121,75
2016-01-08 20:15;122
2016-01-08 20:30;118,35
2016-01-08 20:45;120,9
2016-01-08 21:00;113,3
2016-01-08 21:15;99,9
2016-01-08 21:30;96,75
2016-01-08 21:45;90,25
2016-01-08 22:00;87,6
2016-01-08 22:15;78,8
2016-01-08 22:30;81,05
2016-01-08 22:45;79,5
2016-01-08 23:00;76,25
2016-01-08 23:15;76,8
2016-01-08 23:30;75,35
2016-01-08 23:45;74,8
2016-01-09 00:00;74,8
2016-01-09 00:15;73,45
2016-01-09 00:30;71,4
2016-01-09 00:45;71,1
2016-01-09 01:00;69,85
2016-01-09 01:15;71,45
2016-01-09 01:30;71,6
2016-01-09 01:45;70
2016-01-09 02:00;70,3
2016-01-09 02:15;70,95
2016-01-09 02:30;70,3
2016-01-09 02:45;71,15
2016-01-09 03:00;69
2016-01-09 03:15;69,55
2016-01-09 03:30;68,25
2016-01-09 03:45;69,75
2016-01-09 04:00;72,35
2016-01-09 04:15;75,6
2016-01-09 04:30;78,6
2016-01-09 04:45;80,5
2016-01-09 05:00;79,6
2016-01-09 05:15;74,85
2016-01-09 05:30;79,75
2016-01-09 05:45;74,75
2016-01-09 06:00;78,25
2016-01-09 06:15;73,45
2016-01-09 06:30;73,75
2016-01-09 06:45;75,25
2016-01-09 07:00;74,35
2016-01-09 07:15;75,15
2016-01-09 07:30;73,4
2016-01-09 07:45;85,8
2016-01-09 08:00;90
2016-01-09 08:15;92,4
2016-01-09 08:30;85,85
2016-01-09 08:45;79,75
2016-01-09 09:00;77,6
2016-01-09 09:15;70,9
2016-01-09 09:30;69,55
2016-01-09 09:45;67,35
2016-01-09 10:00;71,6
2016-01-09 10:15;72,2
2016-01-09 10:30;70,45
2016-01-09 10:45;78,5
2016-01-09 11:00;80,25
2016-01-09 11:15;71
2016-01-09 11:30;71,6
2016-01-09 11:45;71,05
2016-01-09 12:00;75,3
2016-01-09 12:15;73,2
2016-01-09 12:30;73
2016-01-09 12:45;78,7
2016-01-09 13:00;76,15
2016-01-09 13:15;75,35
2016-01-09 13:30;71,85
2016-01-09 13:45;75,05
2016-01-09 14:00;75,6
2016-01-09 14:15;76,5
2016-01-09 14:30;73,4
2016-01-09 14:45;76,1
2016-01-09 15:00;78,5
2016-01-09 15:15;75
2016-01-09 15:30;79,7
2016-01-09 15:45;84,45
2016-01-09 16:00;86
2016-01-09 16:15;84,35
2016-01-09 16:30;89,75
2016-01-09 16:45;93,45
2016-01-09 17:00;84,2
2016-01-09 17:15;87,35
2016-01-09 17:30;88,75
2016-01-09 17:45;86,55
2016-01-09 18:00;90,45
2016-01-09 18:15;90,15
2016-01-09 18:30;96,1
2016-01-09 18:45;96,75
2016-01-09 19:00;94,7
2016-01-09 19:15;98,3
2016-01-09 19:30;98,65
2016-01-09 19:45;95,35
2016-01-09 20:00;91,95
2016-01-09 20:15;87,25
2016-01-09 20:30;88,7
2016-01-09 20:45;90
2016-01-09 21:00;88,6
2016-01-09 21:15;87,05
2016-01-09 21:30;85,9
2016-01-09 21:45;80,35
2016-01-09 22:00;79,45
2016-01-09 22:15;79
2016-01-09 22:30;79,6
2016-01-09 22:45;84,3
2016-01-09 23:00;83,45
2016-01-09 23:15;81,45
2016-01-09 23:30;79,75
2016-01-09 23:45;76,7
2016-01-10 00:00;71,9
2016-01-10 00:15;67,5
2016-01-10 00:30;65,8
2016-01-10 00:45;67,15
2016-01-10 01:00;65,05
2016-01-10 01:15;66,8
2016-01-10 01:30;65,65
2016-01-10 01:45;66
2016-01-10 02:00;65,65
2016-01-10 02:15;65,1
2016-01-10 02:30;64,75
2016-01-10 02:45;64,6
2016-01-10 03:00;63,8
2016-01-10 03:15;65,3
2016-01-10 03:30;65,4
2016-01-10 03:45;64,4
2016-01-10 04:00;68,45
2016-01-10 04:15;66,75
2016-01-10 04:30;67,25
2016-01-10 04:45;67,9
2016-01-10 05:00;67,65
2016-01-10 05:15;64,2
2016-01-10 05:30;68,2
2016-01-10 05:45;62,85
2016-01-10 06:00;65,4
2016-01-10 06:15;70,6
2016-01-10 06:30;70,05
2016-01-10 06:45;72,05
2016-01-10 07:00;73,05
2016-01-10 07:15;71,35
2016-01-10 07:30;71,45
2016-01-10 07:45;72,1
2016-01-10 08:00;70,45
2016-01-10 08:15;69,9
2016-01-10 08:30;65,25
2016-01-10 08:45;65,25
2016-01-10 09:00;61,95
2016-01-10 09:15;61,1
2016-01-10 09:30;60,3
2016-01-10 09:45;59,25
2016-01-10 10:00;62,8
2016-01-10 10:15;64,6
2016-01-10 10:30;65,7
2016-01-10 10:45;76,4
2016-01-10 11:00;80,65
2016-01-10 11:15;68,7
2016-01-10 11:30;62,7
2016-01-10 11:45;62,75
2016-01-10 12:00;73,3
2016-01-10 12:15;73,7
2016-01-10 12:30;72,8
2016-01-10 12:45;75,85
2016-01-10 13:00;77,95
2016-01-10 13:15;76,85
2016-01-10 13:30;77,1
2016-01-10 13:45;71,45
2016-01-10 14:00;74
2016-01-10 14:15;74,35
2016-01-10 14:30;74,2
2016-01-10 14:45;72,35
2016-01-10 15:00;75,55
2016-01-10 15:15;75,25
2016-01-10 15:30;76,05
2016-01-10 15:45;77,5
2016-01-10 16:00;72
2016-01-10 16:15;73,35
2016-01-10 16:30;77,3
2016-01-10 16:45;76,75
2016-01-10 17:00;75,5
2016-01-10 17:15;76,4
2016-01-10 17:30;75,6
2016-01-10 17:45;76,95
2016-01-10 18:00;79,5
2016-01-10 18:15;83,9
2016-01-10 18:30;85,3
2016-01-10 18:45;86,45
2016-01-10 19:00;85,45
2016-01-10 19:15;85,9
2016-01-10 19:30;87,55
2016-01-10 19:45;85,6
2016-01-10 20:00;85,55
2016-01-10 20:15;88
2016-01-10 20:30;86,1
2016-01-10 20:45;91,7
2016-01-10 21:00;94,1
2016-01-10 21:15;91,05
2016-01-10 21:30;89,85
2016-01-10 21:45;87,5
2016-01-10 22:00;85,2
2016-01-10 22:15;83,9
2016-01-10 22:30;83,1
2016-01-10 22:45;78,05
2016-01-10 23:00;75,65
2016-01-10 23:15;75,05
2016-01-10 23:30;72,75
2016-01-10 23:45;74

